Weather History for Lemoore (Abandoned) Willett A, CO

Change the Weather History Date:

Tuesday, December 3, 2013

  Actual Average (KBJC) Record (KBJC)
Temperature  
Mean Temperature 34 °F -  
Max Temperature 54 °F 45 °F 70 °F (1989)
Min Temperature 14 °F 26 °F -2 °F (1985)
Degree Days  
Heating Degree Days 31    
Moisture  
Dew Point 19 °F    
Average Humidity 62    
Maximum Humidity 85    
Minimum Humidity 26    
Precipitation  
Precipitation 0.00 in - - ()
Sea Level Pressure  
Sea Level Pressure 29.61 in    
Wind  
Wind Speed 8 mph (NE)    
Max Wind Speed 22 mph    
Max Gust Speed 32 mph    
Visibility 8 miles    
Events Snow    
Averages and records for this station are not official NWS values.
T = Trace of Precipitation, MM = Missing Value Source: NWS Daily Summary

Daily Weather History Graph

Daily Weather History Graph

Search for Another Location

Airport:

Trip Planner

Search our weather history database for the weather conditions in past years. The results will help you decide how hot, cold, wet, or windy it might be!

Date:

Astronomy

Dec. 03, 2013 Rise Set
Actual Time 7:06 AM MST 4:35 PM MST
Civil Twilight 6:35 AM MST 5:05 PM MST
Nautical Twilight 6:02 AM MST 5:39 PM MST
Astronomical Twilight 5:29 AM MST 6:11 PM MST
Moon 7:37 AM MST (12/3) 5:41 PM MST (12/3)
Length of Visible Light 10h 29m
Length of Day
9h 29m
New Moon, 1% of the Moon is Illuminated
Dec 3
New Moon
Dec 9
First Quarter
Dec 17
Full
Dec 25
Last Quarter
Jan 1
New

Hourly Weather History & Observations

Time (MST) Temp. Windchill Dew Point Humidity Pressure Visibility Wind Dir Wind Speed Gust Speed Precip Events Conditions
12:12 AM 44.1 °F 41.5 °F 22.1 °F 42% 29.56 in 10.0 mi SSE 4.6 mph - N/A   Clear
12:32 AM 47.5 °F - 21.0 °F 35% 29.56 in 10.0 mi NE 4.6 mph - N/A   Clear
12:52 AM 43.9 °F 40.5 °F 22.1 °F 42% 29.56 in 10.0 mi ENE 5.8 mph - N/A   Clear
1:12 AM 47.3 °F - 21.2 °F 36% 29.56 in 10.0 mi SE 6.9 mph - N/A   Clear
1:32 AM 44.1 °F 39.0 °F 21.9 °F 42% 29.55 in 10.0 mi East 9.2 mph - N/A   Clear
1:52 AM 45.3 °F 42.3 °F 21.7 °F 39% 29.55 in 10.0 mi East 5.8 mph - N/A   Clear
2:12 AM 45.0 °F - 21.6 °F 40% 29.55 in 10.0 mi Calm Calm - N/A   Clear
2:32 AM 45.0 °F 41.2 °F 21.4 °F 39% 29.56 in 10.0 mi East 6.9 mph - N/A   Clear
2:52 AM 42.3 °F - 22.3 °F 45% 29.56 in 10.0 mi Calm Calm - N/A   Clear
3:12 AM 41.5 °F 39.6 °F 22.5 °F 47% 29.56 in 10.0 mi North 3.5 mph - N/A   Clear
3:32 AM 40.1 °F 36.9 °F 23.0 °F 51% 29.54 in 10.0 mi South 4.6 mph 9.2 mph N/A   Clear
3:52 AM 42.1 °F - 22.3 °F 45% 29.52 in 10.0 mi Calm Calm - N/A   Clear
4:12 AM 49.3 °F - 21.0 °F 33% 29.51 in 10.0 mi WSW 11.5 mph 20.7 mph N/A   Clear
4:32 AM 52.9 °F - 21.4 °F 29% 29.49 in 10.0 mi WSW 13.8 mph 25.3 mph N/A   Clear
4:52 AM 53.2 °F - 20.8 °F 28% 29.47 in 10.0 mi WSW 12.7 mph 26.5 mph N/A   Clear
5:12 AM 54.0 °F - 19.9 °F 26% 29.48 in 10.0 mi WSW 21.9 mph 32.2 mph N/A   Clear
5:32 AM - - - N/A% 29.47 in 10.0 mi WSW 18.4 mph 29.9 mph N/A   Clear
5:52 AM - - - N/A% 29.48 in 10.0 mi WSW 16.1 mph 26.5 mph N/A   Clear
6:12 AM - - - N/A% 29.48 in 10.0 mi WSW 17.3 mph 28.8 mph N/A   Clear
6:32 AM - - - N/A% 29.49 in 10.0 mi WSW 16.1 mph 26.5 mph N/A   Clear
6:52 AM - - - N/A% 29.48 in 10.0 mi South 4.6 mph - N/A   Clear
7:12 AM - - - N/A% 29.49 in 10.0 mi Calm Calm - N/A   Clear
7:32 AM 52.0 °F - 19.9 °F 28% 29.50 in 10.0 mi SW 6.9 mph - N/A   Clear
7:52 AM - - - N/A% 29.49 in 10.0 mi SSW 6.9 mph - N/A   Clear
8:12 AM - - - N/A% 29.49 in 10.0 mi SW 8.1 mph - N/A   Clear
8:32 AM - - - N/A% 29.49 in 10.0 mi SW 3.5 mph - N/A   Clear
8:52 AM - - - N/A% 29.50 in 10.0 mi WSW 9.2 mph - N/A   Clear
9:12 AM - - - N/A% 29.50 in 10.0 mi WSW 13.8 mph 20.7 mph N/A   Clear
9:32 AM - - - N/A% 29.51 in 10.0 mi West 13.8 mph 21.9 mph N/A   Clear
9:52 AM - - - N/A% 29.51 in 10.0 mi SW 9.2 mph - N/A   Clear
10:12 AM - - - N/A% 29.49 in 10.0 mi SW 15.0 mph - N/A   Clear
10:32 AM - - - N/A% 29.50 in 10.0 mi WSW 17.3 mph 21.9 mph N/A   Clear
10:52 AM - - - N/A% 29.51 in 10.0 mi WSW 13.8 mph 23.0 mph N/A   Clear
11:12 AM - - - N/A% 29.51 in 10.0 mi West 12.7 mph 17.3 mph N/A   Scattered Clouds
11:32 AM 48.0 °F - 30.2 °F 50% 29.53 in 10.0 mi NNE 8.1 mph 18.4 mph N/A   Mostly Cloudy
11:52 AM 43.3 °F 35.8 °F 31.5 °F 63% 29.53 in 10.0 mi NNE 16.1 mph 20.7 mph N/A   Overcast
12:12 PM 41.5 °F 33.2 °F 28.6 °F 60% 29.53 in 10.0 mi NE 17.3 mph 21.9 mph N/A   Mostly Cloudy
12:32 PM 40.5 °F 33.2 °F 26.8 °F 58% 29.54 in 10.0 mi NNE 12.7 mph 23.0 mph N/A   Mostly Cloudy
12:52 PM 39.7 °F 30.9 °F 25.2 °F 56% 29.54 in 10.0 mi NE 17.3 mph 21.9 mph N/A   Mostly Cloudy
1:12 PM 38.5 °F 29.6 °F 24.3 °F 57% 29.55 in 10.0 mi ENE 16.1 mph 21.9 mph N/A   Mostly Cloudy
1:32 PM 37.4 °F 28.9 °F 22.5 °F 55% 29.57 in 10.0 mi ENE 13.8 mph 19.6 mph N/A   Overcast
1:52 PM 35.6 °F 27.1 °F 20.3 °F 54% 29.57 in 10.0 mi ENE 12.7 mph 18.4 mph N/A   Overcast
2:12 PM 34.3 °F 27.0 °F 19.4 °F 54% 29.59 in 10.0 mi ENE 9.2 mph - N/A   Overcast
2:32 PM 34.0 °F 28.8 °F 19.9 °F 56% 29.60 in 10.0 mi East 5.8 mph - N/A   Overcast
2:52 PM 33.3 °F 26.4 °F 19.4 °F 57% 29.62 in 10.0 mi East 8.1 mph - N/A   Overcast
3:12 PM 31.8 °F 23.3 °F 18.9 °F 59% 29.63 in 10.0 mi East 10.4 mph - N/A   Overcast
3:32 PM 30.2 °F 20.8 °F 18.5 °F 62% 29.64 in 10.0 mi NE 11.5 mph - N/A   Overcast
3:52 PM 28.8 °F 19.5 °F 18.1 °F 65% 29.65 in 7.0 mi NE 10.4 mph - N/A Snow Light Snow
4:12 PM 27.5 °F 18.6 °F 18.0 °F 67% 29.67 in 10.0 mi NNE 9.2 mph - N/A   Overcast
4:32 PM 26.6 °F 17.5 °F 17.8 °F 69% 29.68 in 7.0 mi NE 9.2 mph - N/A Snow Light Snow
4:52 PM 25.0 °F 14.8 °F 18.3 °F 76% 29.68 in 4.0 mi NNE 10.4 mph - N/A Snow Light Snow
5:12 PM 23.2 °F 12.6 °F 18.7 °F 83% 29.70 in 2.0 mi NNE 10.4 mph - N/A Snow Light Snow
5:32 PM 22.5 °F 11.7 °F 18.3 °F 84% 29.71 in 2.0 mi NNE 10.4 mph - N/A Snow Light Snow
5:52 PM 21.7 °F 12.3 °F 17.6 °F 84% 29.72 in 2.5 mi NNE 8.1 mph - N/A Snow Light Snow
6:12 PM 21.6 °F 10.6 °F 17.6 °F 85% 29.73 in 3.0 mi NNE 10.4 mph - N/A Snow Light Snow
6:32 PM 20.3 °F 9.0 °F 15.8 °F 83% 29.74 in 3.0 mi NNE 10.4 mph - N/A Snow Light Snow
6:52 PM 19.8 °F 9.1 °F 15.4 °F 83% 29.75 in 2.5 mi NE 9.2 mph - N/A Snow Light Snow
7:12 PM 19.0 °F 6.1 °F 14.4 °F 82% 29.76 in 2.5 mi NE 12.7 mph 16.1 mph N/A Snow Light Snow
7:32 PM 18.3 °F 5.9 °F 14.0 °F 83% 29.77 in 2.5 mi NE 11.5 mph - N/A Snow Light Snow
7:52 PM 17.6 °F 7.3 °F 13.1 °F 83% 29.78 in 5.0 mi NNE 8.1 mph - N/A Snow Light Snow
8:12 PM 17.4 °F 5.4 °F 12.7 °F 82% 29.78 in 3.0 mi NE 10.4 mph - N/A Snow Light Snow
8:32 PM 17.1 °F 7.6 °F 12.9 °F 84% 29.78 in 2.0 mi NE 6.9 mph - N/A Snow Light Snow
8:52 PM 16.7 °F 7.2 °F 12.4 °F 83% 29.77 in 2.0 mi ENE 6.9 mph - N/A Snow Light Snow
9:12 PM 16.7 °F 6.2 °F 12.7 °F 84% 29.79 in 2.0 mi ENE 8.1 mph - N/A Snow Light Snow
9:32 PM 16.2 °F 4.7 °F 11.7 °F 82% 29.78 in 2.5 mi ENE 9.2 mph - N/A Snow Light Snow
9:52 PM 16.2 °F 7.6 °F 12.0 °F 84% 29.78 in 2.5 mi ENE 5.8 mph - N/A Snow Light Snow
10:12 PM 15.8 °F 5.1 °F 11.5 °F 83% 29.78 in 3.0 mi NE 8.1 mph - N/A Snow Light Snow
10:32 PM 15.6 °F 8.3 °F 11.1 °F 82% 29.79 in 5.0 mi NE 4.6 mph - N/A Snow Light Snow
10:52 PM 15.6 °F 5.9 °F 11.3 °F 83% 29.79 in 7.0 mi ENE 6.9 mph - N/A Snow Light Snow
11:12 PM 14.9 °F 6.1 °F 10.2 °F 82% 29.79 in 10.0 mi NE 5.8 mph - N/A   Overcast
11:32 PM 14.9 °F 6.1 °F 10.8 °F 84% 29.79 in 3.0 mi NNE 5.8 mph - N/A Snow Light Snow
11:52 PM 14.7 °F 7.3 °F 10.4 °F 83% 29.79 in 4.0 mi NE 4.6 mph - N/A Snow Light Snow